Flag for Japan Weather past 2 weeks in Nagano, Japan

Now
49 °F

Cool.


Feels Like: 49 °F
Forecast: 27 / 65 °F
Wind: 3 mph from Southeast

Location: Nagano

Current Time: Mar 27, 2015 at 7:42:49 PM

Latest Report: Mar 27, 2015 at 7:00 PM


Visibility: N/A

Pressure: 30.19 "Hg

Humidity: 39%

Dew point: 26 °F

Location of NaganoLocation

Historic Weather in Nagano — Graph

°F

Nagano temperature yesterday

Maximum temperature yesterday: 49 °F (at 3:00 PM)
Minimum temperature yesterday: 29 °F (at 4:00 AM)
Average temperature yesterday: 38 °F

Past Weeks' High & Low Weather Summary

 TemperatureHumidityPressure
High69 °F (Mar 17, 2:00 PM)97% (Mar 14, 1:00 AM)30.58 "Hg (Mar 14, 1:00 AM)
Low27 °F (Mar 27, 6:00 AM)15% (Mar 22, 3:00 PM)29.74 "Hg (Mar 22, 3:00 PM)
Average42 °F66%30.12 "Hg
* Reported Mar 12 6:00 PM — Mar 27 6:00 PM, Nagano, Weather by CustomWeather, © 2015

Note: Actual official high and low records may vary slightly from our data, if they occured in-between our weather recording intervals... More about our weather records

Advertising

Nagano weather history for previous 24 hours

 ConditionsComfort  
Time TempWeatherWind HumidityBarometerVisibility
6:00 PM
Fri, Mar 27
52 °FCool.8 mph35%30.17 "HgN/A
5:00 PM57 °FRefreshingly cool.8 mph24%30.13 "HgN/A
4:00 PM60 °FRefreshingly cool.10 mph20%30.12 "HgN/A
3:00 PM63 °FPassing clouds.9 mph19%30.12 "Hg19 mi
2:00 PM63 °FMild.10 mph18%30.14 "HgN/A
1:00 PM59 °FRefreshingly cool.7 mph23%30.19 "HgN/A
11:00 AM49 °FCool.2 mph32%30.29 "HgN/A
10:00 AM45 °FCool.2 mph43%30.33 "HgN/A
9:00 AM39 °FSunny.3 mph53%30.38 "Hg6 mi
8:00 AM35 °FChilly.3 mph65%30.42 "HgN/A
7:00 AM30 °FChilly.2 mph77%30.45 "HgN/A
6:00 AM27 °FChilly.1 mph78%30.46 "HgN/A
5:00 AM28 °FChilly.2 mph77%30.45 "HgN/A
4:00 AM29 °FChilly.1 mph76%30.45 "HgN/A
3:00 AM30 °FClear.1 mph75%30.45 "Hg9 mi
2:00 AM31 °FChilly.1 mph71%30.46 "HgN/A
1:00 AM32 °FChilly.1 mph69%30.47 "HgN/A
12:00 AM33 °FChilly.3 mph64%30.47 "HgN/A
11:00 PM
Thu, Mar 26
34 °FChilly.2 mph64%30.47 "HgN/A
10:00 PM35 °FChilly.3 mph62%30.46 "HgN/A
9:00 PM36 °FClear.2 mph57%30.46 "Hg19 mi
8:00 PM39 °FChilly.2 mph50%30.44 "HgN/A
7:00 PM40 °FQuite cool.5 mph50%30.42 "HgN/A
Weather by CustomWeather, © 2015

See weather overviewHow to use our weather pages